Location: *
(32.8140°S, 174.6161°E)
Time: 02:26:11
(UTC+00:00)

Cosmos 2227 - Pass Details

Date: 10 December 2019
Orbit: 834 x 861 km, 71.0° (Epoch: 28 January)

Event Time Altitude Azimuth Distance (km) Brightness Sun altitude
Rises 14:58:36 0° 199° (SSW) 3,421 7.8 -21.9°
Reaches altitude 10° 15:01:04 10° 197° (SSW) 2,484 7.0 -21.5°
Maximum altitude 15:06:46 77° 111° (ESE) 877 4.3 -20.7°
Drops below altitude 10° 15:12:28 10° 24° (NNE) 2,473 6.4 -19.9°
Enters shadow 15:14:51 - 23° (NNE) 3,382 7.1 -19.6°
